User: anonymous   Login
Location: Unspecified
(0.0000°N, 0.0000°E)
Time: 07:33:24
(UTC+00:00)
Language:

Mublcom - Orbit

View from above orbital plane
View from above orbital plane
View from above satellite
View from above satellite

Ground track
Ground track

The orbit data is extracted from the following two-line orbital elements,

1 25736U 99026B   19082.84365874  .00000121  00000-0  41850-4 0  9990
2 25736  97.6878 118.0130 0005559 171.5132 188.6158 14.49248073 46557
Epoch (UTC): 23 March 2019 20:14:52
Eccentricity: 0.0005559
inclination: 97.6878°
perigee height: 724 km
apogee height: 732 km
right ascension of ascending node: 118.0130°
argument of perigee: 171.5132°
revolutions per day: 14.49248073
mean anomaly at epoch: 188.6158°
orbit number at epoch: 4655

The dashed part of the orbit path shows where the satellite is in the earth's shadow,  

DLR